Tracking 18980 objects as of 22-Feb-2018
HD Live streaming from Space Station
objects crossing your sky now

PROGNOZ 6

Track PROGNOZ 6 now!
PROGNOZ 6 is classified as:


NORAD ID: 10370
Int'l Code: 1977-093A
Perigee: 6,358.2 km
Apogee: 191,880.2 km
Inclination: 72.6 °
Period: 5,683.0 minutes
Semi major axis: 105490 km
RCS: 2.5179 m2 (large)
Launch date: September 22, 1977
Source: Commonwealth of Independent States (former USSR) (CIS)
Launch site: TYURATAM MISSILE AND SPACE COMPLEX (TTMTR)
aabbcc
Your satellite tracking list
Your tracking list is empty




NASA's NSSDC Master Catalog

Two Line Element Set (TLE):
1 10370U 77093A   18030.45745146  .00000165  00000-0  00000+0 0  9996
2 10370  72.6444 297.2160 8793330 225.8629 359.8917  0.25338733 34984
Source of the keplerian elements: AFSPC